Regional Weather Roundup
Issued by NWS

Home | Current Version | Previous Version | Text Only | Print | Product List | Glossary On
Versions: 1 2 3 4 5 6 7 8 9 10 11 12 13 14 15 16 17 18 19 20 21 22 23 24 25 26 27 28 29 30 31 32 33 34 35 36 37 38 39 40 41 42 43 44 45 46 47 48 49 50
000
ASUS43 KTOP 281208
RWRKS

WEATHER ROUNDUP FOR KANSAS
NATIONAL WEATHER SERVICE GOODLAND KS
700 AM CDT SAT MAY 28 2016

NOTE:  "FAIR" INDICATES FEW OR NO CLOUDS BELOW 12,000 FEET WITH NO
SIGNIFICANT WEATHER AND/OR OBSTRUCTIONS TO VISIBILITY.

KSZ001>006-013>018-027>032-041>047-281300-
NORTHWEST KANSAS

CITY           SKY/WX    TMP DP  RH WIND       PRES   REMARKS
GOODLAND       CLEAR     46  44  93 W9        29.92R
6HR MIN TEMP:  46; 6HR MAX TEMP:  48;

HAYS           CLEAR     50  43  76 NW7       29.83R
HILL CITY      CLEAR     51  49  92 W7        29.85R
6HR MIN TEMP:  50; 6HR MAX TEMP:  59; 6HR PCP:  0.03;

RUSSELL        CLEAR     53  52  96 W8        29.81R
6HR MIN TEMP:  52; 6HR MAX TEMP:  57; 6HR PCP:  0.01;

$$

KSZ061>065-074>080-084>089-281300-
SOUTHWEST KANSAS

CITY           SKY/WX    TMP DP  RH WIND       PRES   REMARKS
DODGE CITY     CLEAR     49  47  93 W8        29.89R
6HR MIN TEMP:  49; 6HR MAX TEMP:  56;

ELKHART          N/A     48  41  77 W8          N/A
GARDEN CITY    CLEAR     47  46  97 W8        29.90R
6HR MIN TEMP:  45; 6HR MAX TEMP:  54;

GREAT BEND     CLEAR     55  48  76 SW5       29.83R
LIBERAL        CLEAR     48  41  76 W9        29.95R
PRATT          CLEAR     53  49  89 W8        29.85S
6HR MIN TEMP:  52; 6HR MAX TEMP:  60;

$$

KSZ066>073-081>083-090>101-281300-
SOUTHEAST KANSAS

CITY           SKY/WX    TMP DP  RH WIND       PRES   REMARKS
CHANUTE        PTCLDY    64  61  90 S14       29.80R
6HR MIN TEMP:  60; 6HR MAX TEMP:  64;

COFFEYVILLE    MOCLDY    65  63  93 S14G29    29.83R
6HR MIN TEMP:  60; 6HR MAX TEMP:  65;

HUTCHINSON     CLEAR     58  56  93 W7        29.82R
6HR MIN TEMP:  57; 6HR MAX TEMP:  61; 6HR PCP: TRACE;

MEDICINE LODGE   N/A     56  52  86 W5        29.85R
NEWTON         CLEAR     57  54  88 W9        29.82R
PARSONS        MOCLDY    65  62  90 SW10G22   29.83R
6HR MIN TEMP:  60; 6HR MAX TEMP:  65;

WICHITA INTL   PTCLDY    57  55  93 SW6       29.81R
6HR MIN TEMP:  56; 6HR MAX TEMP:  64;

WICHITA JABRA  CLOUDY    58  57  97 W8        29.79R
6HR MIN TEMP:  57; 6HR MAX TEMP:  63;

WICHITA MCCONL PTCLDY    57  55  94 W9        29.81R
WINFIELD       CLEAR     58  55  90 W10       29.84R
6HR MIN TEMP:  57; 6HR MAX TEMP:  63;

$$

KSZ007>012-019>026-033>040-048>060-102>105-281300-
NORTHEAST KANSAS

CITY           SKY/WX    TMP DP  RH WIND       PRES   REMARKS
CONCORDIA      CLOUDY    57  56  96 W3        29.79R
6HR MIN TEMP:  57; 6HR MAX TEMP:  59; 6HR PCP:  0.02;

EMPORIA        CLEAR     59  56  89 SW10      29.77R
6HR MIN TEMP:  58; 6HR MAX TEMP:  62;

LAWRENCE       PTSUNNY   60  59  96 SE8       29.76S
6HR MIN TEMP:  58; 6HR MAX TEMP:  60;

MANHATTAN      CLOUDY    60  58  92 CALM      29.75R
6HR MIN TEMP:  59; 6HR MAX TEMP:  60; 6HR PCP:  0.06;

MARYSVILLE     CLOUDY    59  59 100 CALM      29.76R
OLATHE IND     CLOUDY    61  59  93 S7        29.79R
6HR MIN TEMP:  57; 6HR MAX TEMP:  61; 6HR PCP:  0.01;

OLATHE EXE     CLOUDY    59  58  96 SE5       29.78S
6HR MIN TEMP:  57; 6HR MAX TEMP:  59;

SALINA         CLOUDY    59  57  93 SW6       29.79R
6HR MIN TEMP:  59; 6HR MAX TEMP:  61; 6HR PCP:  0.19;

TOPEKA BILLARD MOCLDY    61  58  90 SE3       29.76R
6HR MIN TEMP:  58; 6HR MAX TEMP:  61;

TOPEKA FORBES  MOCLDY    61  59  93 SE7       29.76R
6HR MIN TEMP:  58; 6HR MAX TEMP:  61;

$$



USA.gov is the U.S. government's official web portal to all federal, state and local government web resources and services.